Weather History for Gustavus, AK

Change the Weather History Date:

Thursday, May 3, 2012

  Actual Average Record
Temperature  
Mean Temperature 42 °F -  
Max Temperature 48 °F 52 °F 66 °F (1960)
Min Temperature 35 °F 35 °F 21 °F (2002)
Degree Days  
Heating Degree Days 24    
Moisture  
Dew Point 35 °F    
Average Humidity 77    
Maximum Humidity 93    
Minimum Humidity 54    
Precipitation  
Precipitation 0.00 in - - ()
Sea Level Pressure  
Sea Level Pressure 29.82 in    
Wind  
Wind Speed 2 mph (NW)    
Max Wind Speed 9 mph    
Max Gust Speed -    
Visibility 10 miles    
Events      
Averages and records for this station are not official NWS values.
T = Trace of Precipitation, MM = Missing Value Source: NWS Daily Summary

Daily Weather History Graph

Daily Weather History Graph

Search for Another Location

Airport:

Trip Planner

Search our weather history database for the weather conditions in past years. The results will help you decide how hot, cold, wet, or windy it might be!

Date:

Astronomy

May. 03, 2012 Rise Set
Actual Time 5:01 AM AKDT 8:59 PM AKDT
Civil Twilight 4:11 AM AKDT 9:50 PM AKDT
Nautical Twilight 2:55 AM AKDT 11:07 PM AKDT
Astronomical Twilight 1:32 AM AKDT 12:27 AM AKDT
Moon 6:07 PM AKDT (5/3) 3:46 AM AKDT (5/3)
Length of Visible Light 17h 38m
Length of Day
15h 57m
Waxing Gibbous, 92% of the Moon is Illuminated
May 3
Waxing Gibbous
May 5
Full
May 12
Last Quarter
May 20
New
May 28
First Quarter

Hourly Weather History & Observations

Time (AKDT) Temp. Windchill Dew Point Humidity Pressure Visibility Wind Dir Wind Speed Gust Speed Precip Events Conditions
12:16 AM 39.2 °F - 35.6 °F 87% 29.84 in 10.0 mi Calm Calm - N/A   Overcast
12:36 AM 39.2 °F - 35.6 °F 87% 29.84 in 10.0 mi Calm Calm - N/A   Overcast
12:56 AM 39.2 °F 37.0 °F 35.6 °F 87% 29.84 in 10.0 mi NNW 3.5 mph - N/A   Overcast
1:16 AM 39.2 °F - 35.6 °F 87% 29.84 in 10.0 mi Calm Calm - N/A   Mostly Cloudy
1:36 AM 39.2 °F - 35.6 °F 87% 29.84 in 10.0 mi Calm Calm - N/A   Mostly Cloudy
1:56 AM 37.4 °F - 33.8 °F 87% 29.84 in 10.0 mi Calm Calm - N/A   Overcast
2:16 AM 37.4 °F - 33.8 °F 87% 29.84 in 10.0 mi Calm Calm - N/A   Overcast
2:36 AM 37.4 °F 34.9 °F 33.8 °F 87% 29.84 in 10.0 mi NNW 3.5 mph - N/A   Overcast
2:56 AM 37.4 °F - 33.8 °F 87% 29.84 in 10.0 mi Calm Calm - N/A   Overcast
3:16 AM 37.4 °F - 33.8 °F 87% 29.84 in 10.0 mi Calm Calm - N/A   Overcast
3:36 AM 37.4 °F - 33.8 °F 87% 29.84 in 7.0 mi Calm Calm - N/A   Overcast
3:56 AM 37.4 °F - 35.6 °F 93% 29.84 in 10.0 mi Calm Calm - N/A   Overcast
4:16 AM 37.4 °F 34.9 °F 35.6 °F 93% 29.84 in 9.0 mi South 3.5 mph - N/A   Overcast
4:36 AM 39.2 °F 37.0 °F 35.6 °F 87% 29.84 in 10.0 mi North 3.5 mph - N/A   Overcast
4:56 AM 37.4 °F - 33.8 °F 87% 29.84 in 10.0 mi Calm Calm - N/A   Overcast
5:16 AM 37.4 °F - 33.8 °F 87% 29.84 in 10.0 mi Calm Calm - N/A   Overcast
5:36 AM 37.4 °F - 33.8 °F 87% 29.84 in 10.0 mi Calm Calm - N/A   Overcast
5:56 AM 37.4 °F - 33.8 °F 87% 29.84 in 10.0 mi Calm Calm - N/A   Overcast
6:16 AM 37.4 °F - 33.8 °F 87% 29.84 in 10.0 mi Calm Calm - N/A   Overcast
6:36 AM 37.4 °F - 33.8 °F 87% 29.84 in 10.0 mi Calm Calm - N/A   Mostly Cloudy
6:56 AM 37.4 °F - 33.8 °F 87% 29.84 in 10.0 mi Calm Calm - N/A   Mostly Cloudy
7:16 AM 39.2 °F - 35.6 °F 87% 29.84 in 10.0 mi Calm Calm - N/A   Partly Cloudy
7:36 AM 39.2 °F - 37.4 °F 93% 29.84 in 10.0 mi Calm Calm - N/A   Clear
7:56 AM 42.8 °F - 37.4 °F 81% 29.84 in 10.0 mi Calm Calm - N/A   Clear
8:36 AM 42.8 °F 41.1 °F 37.4 °F 81% 29.83 in 10.0 mi ESE 3.5 mph - N/A   Scattered Clouds
8:56 AM 42.8 °F 40.1 °F 35.6 °F 76% 29.83 in 10.0 mi ESE 4.6 mph - N/A   Mostly Cloudy
9:16 AM 44.6 °F - 35.6 °F 71% 29.83 in 10.0 mi Calm Calm - N/A   Mostly Cloudy
9:36 AM 44.6 °F 42.2 °F 35.6 °F 71% 29.83 in 10.0 mi ESE 4.6 mph - N/A   Mostly Cloudy
9:56 AM 44.6 °F 40.7 °F 37.4 °F 76% 29.83 in 10.0 mi WSW 6.9 mph - N/A   Overcast
10:16 AM 44.6 °F 41.4 °F 37.4 °F 76% 29.83 in 10.0 mi WSW 5.8 mph - N/A   Overcast
10:36 AM 44.6 °F 40.2 °F 37.4 °F 76% 29.82 in 10.0 mi WSW 8.1 mph - N/A   Overcast
10:56 AM 44.6 °F 40.7 °F 35.6 °F 71% 29.83 in 10.0 mi SW 6.9 mph - N/A   Overcast
11:16 AM 44.6 °F 41.4 °F 37.4 °F 76% 29.83 in 10.0 mi WSW 5.8 mph - N/A   Overcast
11:36 AM 44.6 °F 40.7 °F 37.4 °F 76% 29.82 in 10.0 mi NW 6.9 mph - N/A   Overcast
11:56 AM 44.6 °F 40.7 °F 37.4 °F 76% 29.82 in 10.0 mi NNW 6.9 mph - N/A   Overcast
12:16 PM 44.6 °F 39.7 °F 35.6 °F 71% 29.82 in 10.0 mi NNE 9.2 mph - N/A   Overcast
12:36 PM 44.6 °F 40.2 °F 35.6 °F 71% 29.82 in 10.0 mi NE 8.1 mph - N/A   Overcast
12:56 PM 46.4 °F - 35.6 °F 66% 29.82 in 10.0 mi Calm Calm - N/A   Overcast
1:16 PM 46.4 °F 44.3 °F 35.6 °F 66% 29.81 in 10.0 mi NNE 4.6 mph - N/A   Overcast
1:36 PM 44.6 °F 39.7 °F 35.6 °F 71% 29.81 in 10.0 mi WNW 9.2 mph - N/A   Overcast
1:56 PM 44.6 °F 41.4 °F 32.0 °F 61% 29.81 in 10.0 mi NW 5.8 mph - N/A   Overcast
2:16 PM 46.4 °F 42.9 °F 33.8 °F 62% 29.81 in 10.0 mi NW 6.9 mph - N/A   Overcast
2:36 PM 48.2 °F - 33.8 °F 58% 29.80 in 10.0 mi NNW 6.9 mph - N/A   Mostly Cloudy
2:56 PM 48.2 °F - 33.8 °F 58% 29.80 in 10.0 mi WNW 6.9 mph - N/A   Mostly Cloudy
3:16 PM 48.2 °F - 33.8 °F 58% 29.80 in 10.0 mi NW 3.5 mph - N/A   Mostly Cloudy
3:36 PM 48.2 °F - 32.0 °F 54% 29.80 in 10.0 mi East 4.6 mph - N/A   Overcast
3:56 PM 44.6 °F 40.2 °F 33.8 °F 66% 29.81 in 10.0 mi East 8.1 mph - N/A   Overcast
4:16 PM 42.8 °F 41.1 °F 35.6 °F 76% 29.81 in 10.0 mi East 3.5 mph - N/A   Overcast
4:36 PM 44.6 °F 40.7 °F 35.6 °F 71% 29.81 in 10.0 mi NE 6.9 mph - N/A   Overcast
4:56 PM 44.6 °F 42.2 °F 35.6 °F 71% 29.80 in 10.0 mi NE 4.6 mph - N/A   Mostly Cloudy
5:16 PM 44.6 °F - 33.8 °F 66% 29.80 in 10.0 mi North - - N/A   Mostly Cloudy
5:36 PM 46.4 °F - 35.6 °F 66% 29.80 in 10.0 mi Calm Calm - N/A   Overcast
5:56 PM 46.4 °F 44.3 °F 35.6 °F 66% 29.80 in 10.0 mi West 4.6 mph - N/A   Mostly Cloudy
6:16 PM 44.6 °F 43.1 °F 35.6 °F 71% 29.80 in 10.0 mi NW 3.5 mph - N/A   Scattered Clouds
6:36 PM 44.6 °F 40.7 °F 35.6 °F 71% 29.80 in 10.0 mi North 6.9 mph - N/A   Mostly Cloudy
6:56 PM 44.6 °F 42.2 °F 35.6 °F 71% 29.80 in 10.0 mi NW 4.6 mph - N/A   Overcast
7:16 PM 44.6 °F 42.2 °F 35.6 °F 71% 29.80 in 10.0 mi NW 4.6 mph - N/A   Overcast
7:36 PM 44.6 °F 43.1 °F 35.6 °F 71% 29.80 in 10.0 mi NNE 3.5 mph - N/A   Scattered Clouds
7:56 PM 44.6 °F - 35.6 °F 71% 29.80 in 10.0 mi Calm Calm - N/A   Partly Cloudy
8:16 PM 44.6 °F 42.2 °F 33.8 °F 66% 29.80 in 10.0 mi West 4.6 mph - N/A   Partly Cloudy
8:36 PM 42.8 °F 40.1 °F 33.8 °F 70% 29.80 in 10.0 mi WSW 4.6 mph - N/A   Clear
8:56 PM 41.0 °F 39.0 °F 35.6 °F 81% 29.80 in 10.0 mi WSW 3.5 mph - N/A   Clear
9:16 PM 39.2 °F - 35.6 °F 87% 29.80 in 10.0 mi Calm Calm - N/A   Clear
9:36 PM 37.4 °F - 33.8 °F 87% 29.80 in 10.0 mi Calm Calm - N/A   Clear
9:56 PM 37.4 °F - 32.0 °F 81% 29.80 in 10.0 mi Calm Calm - N/A   Clear
10:16 PM 35.6 °F - 30.2 °F 81% 29.81 in 10.0 mi Calm Calm - N/A   Clear
10:36 PM 35.6 °F - 30.2 °F 81% 29.81 in 10.0 mi Calm Calm - N/A   Clear
10:56 PM 35.6 °F - 32.0 °F 87% 29.81 in 10.0 mi Calm Calm - N/A   Mostly Cloudy
11:16 PM 35.6 °F - 30.2 °F 81% 29.81 in 10.0 mi Calm Calm - N/A   Overcast
11:36 PM 35.6 °F - 30.2 °F 81% 29.81 in 10.0 mi Calm Calm - N/A   Overcast
11:56 PM 35.6 °F - 30.2 °F 81% 29.81 in 10.0 mi Calm Calm - N/A   Overcast